Flag for U.S.A. Weather past 2 weeks in Osage City, Kansas, U.S.A.

Now
71 °F

Sunny.


Feels Like: 75 °F
Forecast: 59 / 84 °F
Wind: 6 mph from East

Location: Forbes Field

Current Time: Oct 25, 2014 at 7:44:46 PM

Latest Report: Oct 25, 2014 at 6:53 PM


Visibility: 10 mi

Pressure: 29.98 "Hg

Humidity: 66%

Dew point: 59 °F

Location of Osage CityLocation

Historic Weather in Osage City — Graph

°F

Osage City temperature yesterday

Maximum temperature yesterday: 78 °F (at 3:53 PM)
Minimum temperature yesterday: 56 °F (at 5:53 AM)
Average temperature yesterday: 65 °F

Past Weeks' High & Low Weather Summary

 TemperatureHumidityPressure
High81 °F (Oct 25, 3:53 PM)100% (Oct 25, 7:53 AM)30.26 "Hg (Oct 25, 7:53 AM)
Low37 °F (Oct 11, 7:53 AM)29% (Oct 21, 3:53 PM)29.57 "Hg (Oct 13, 2:53 PM)
Average57 °F73%29.99 "Hg
* Reported Oct 10 6:53 PM — Oct 25 6:53 PM, Osage City, Weather by CustomWeather, © 2014

Note: Actual official high and low records may vary slightly from our data, if they occured in-between our weather recording intervals... More about our weather records

Advertising

Osage City weather history for previous 24 hours

 ConditionsComfort  
Time TempWeatherWind HumidityBarometerVisibility
6:53 PM
Oct 25
71 °FSunny.6 mph66%29.98 "Hg10 mi
5:53 PM77 °FSunny.6 mph60%29.98 "Hg10 mi
4:53 PM80 °FSunny.7 mph54%29.99 "Hg10 mi
3:53 PM81 °FSunny.6 mph53%29.99 "Hg10 mi
2:53 PM79 °FSunny.6 mph56%30.00 "Hg10 mi
1:53 PM78 °FSunny.6 mph54%30.02 "Hg10 mi
12:53 PM77 °FSunny.7 mph60%30.03 "Hg10 mi
11:53 AM74 °FSunny.6 mph69%30.05 "Hg10 mi
10:53 AM68 °FSunny.3 mph82%30.06 "Hg9 mi
9:53 AM62 °FFog.No wind93%30.06 "Hg3 mi
9:00 AM57 °FFog.No wind100%30.07 "Hg2 mi
7:53 AM51 °FFog.No wind100%30.04 "Hg0 mi
7:00 AM52 °FFog.No wind97%30.04 "Hg0 mi
5:53 AM54 °FFog.No wind97%30.02 "Hg5 mi
5:01 AM53 °FFog.No wind96%30.02 "Hg0 mi
3:53 AM57 °FFog.5 mph93%29.99 "Hg3 mi
2:53 AM58 °FFog.3 mph97%30.00 "Hg6 mi
1:53 AM62 °FClear.5 mph90%29.98 "Hg9 mi
12:53 AM60 °FClear.5 mph90%29.99 "Hg9 mi
11:53 PM
Oct 24
63 °FClear.3 mph87%29.99 "Hg10 mi
10:53 PM67 °FClear.8 mph81%29.96 "Hg10 mi
9:53 PM65 °FClear.8 mph85%29.95 "Hg10 mi
8:53 PM65 °FClear.8 mph81%29.94 "Hg10 mi
7:53 PM67 °FClear.9 mph79%29.93 "Hg10 mi
Weather by CustomWeather, © 2014

See weather overviewHow to use our weather pages